When you browse on this site, cookies collect data to enhance your experience and personalize the content and advertising you see.
Visit our Privacy Policy to learn more. By continuing to use the site, you agree to this use of cookies and data.
  • Em Portugal
  • Lista de países
  • Para 7 dias
  • Temperatura da água
  • Mapa do tempo
  • Widgets de tempo
  • user-avatar
    Iniciar Sessão

    Previsão horária em Askiz

    Hoje, 5 Junho, Sexta-feira

    Tempo Temperatura Precipitação Vento Pressão Humidade
    00:00 +10°C° 0 mm 1 m/s 722 mmHg 84%
    01:00 +10°C° 0.1 mm 1 m/s 722 mmHg 85%
    02:00 +10°C° 0.1 mm 1 m/s 721 mmHg 86%
    03:00 +10°C° 0.1 mm 1 m/s 721 mmHg 87%
    04:00 +10°C° 0.7 mm 1 m/s 721 mmHg 88%
    05:00 +10°C° 0.7 mm 1 m/s 721 mmHg 89%
    06:00 +9°C° 0 mm 0 m/s 720 mmHg 88%
    07:00 +11°C° 0.3 mm 1 m/s 720 mmHg 88%
    08:00 +11°C° 0.3 mm 1 m/s 719 mmHg 87%
    09:00 +11°C° 0.3 mm 1 m/s 719 mmHg 87%
    10:00 +12°C° 0.2 mm 1 m/s 719 mmHg 82%
    11:00 +13°C° 0.2 mm 2 m/s 719 mmHg 76%
    12:00 +15°C° 0 mm 2 m/s 718 mmHg 72%
    13:00 +14°C° 0.5 mm 2 m/s 718 mmHg 73%
    14:00 +14°C° 0.5 mm 2 m/s 718 mmHg 74%
    15:00 +14°C° 0.5 mm 2 m/s 718 mmHg 75%
    16:00 +13°C° 1.1 mm 2 m/s 719 mmHg 80%
    17:00 +12°C° 1.1 mm 1 m/s 719 mmHg 85%
    18:00 +11°C° 0 mm 1 m/s 721 mmHg 86%
    19:00 +11°C° 0.7 mm 1 m/s 721 mmHg 87%
    20:00 +10°C° 0.7 mm 1 m/s 722 mmHg 88%
    21:00 +10°C° 0.7 mm 1 m/s 722 mmHg 89%
    22:00 +8°C° 0.3 mm 2 m/s 722 mmHg 89%
    23:00 +8°C° 0.3 mm 3 m/s 722 mmHg 89%

    Amanhã, 6 Junho, Sábado

    Tempo Temperatura Precipitação Vento Pressão Humidade
    00:00 +7°C° 0.3 mm 3 m/s 723 mmHg 89%
    01:00 +6°C° 0 mm 4 m/s 722 mmHg 89%
    02:00 +5°C° 0 mm 4 m/s 722 mmHg 89%
    03:00 +5°C° 0 mm 4 m/s 722 mmHg 90%
    04:00 +6°C° 0.1 mm 5 m/s 723 mmHg 88%
    05:00 +7°C° 0.1 mm 5 m/s 724 mmHg 85%
    06:00 +7°C° 0.1 mm 5 m/s 724 mmHg 83%
    07:00 +8°C° 0.2 mm 6 m/s 725 mmHg 79%
    08:00 +9°C° 0.2 mm 6 m/s 725 mmHg 75%
    09:00 +10°C° 0.2 mm 6 m/s 726 mmHg 70%
    10:00 +10°C° 0.6 mm 6 m/s 726 mmHg 71%
    11:00 +10°C° 0.6 mm 7 m/s 727 mmHg 71%
    12:00 +11°C° 0.6 mm 7 m/s 727 mmHg 71%
    13:00 +11°C° 0.4 mm 7 m/s 727 mmHg 71%
    14:00 +11°C° 0.4 mm 6 m/s 727 mmHg 70%
    15:00 +11°C° 0.4 mm 6 m/s 727 mmHg 70%
    16:00 +10°C° 1 mm 5 m/s 727 mmHg 76%
    17:00 +10°C° 1 mm 4 m/s 727 mmHg 81%
    18:00 +8°C° 1 mm 4 m/s 728 mmHg 87%
    19:00 +8°C° 1.6 mm 4 m/s 728 mmHg 89%
    20:00 +9°C° 1.6 mm 3 m/s 728 mmHg 91%
    21:00 +9°C° 1.6 mm 3 m/s 728 mmHg 93%
    22:00 +8°C° 0.5 mm 3 m/s 729 mmHg 92%
    23:00 +8°C° 0.5 mm 3 m/s 729 mmHg 92%

    Depois de amanhã, 7 Junho, Domingo

    Tempo Temperatura Precipitação Vento Pressão Humidade
    00:00 +7°C° 0.5 mm 4 m/s 730 mmHg 91%
    01:00 +8°C° 0.1 mm 3 m/s 730 mmHg 91%
    02:00 +8°C° 0.1 mm 3 m/s 730 mmHg 91%
    03:00 +8°C° 0.1 mm 3 m/s 730 mmHg 91%
    04:00 +7°C° 0 mm 4 m/s 730 mmHg 89%
    05:00 +8°C° 0 mm 4 m/s 730 mmHg 88%
    06:00 +10°C° 0 mm 4 m/s 730 mmHg 86%
    07:00 +10°C° 0.2 mm 5 m/s 730 mmHg 82%
    08:00 +11°C° 0.2 mm 6 m/s 730 mmHg 79%
    09:00 +12°C° 0.2 mm 7 m/s 730 mmHg 75%
    10:00 +11°C° 0.6 mm 6 m/s 729 mmHg 77%
    11:00 +11°C° 0.6 mm 6 m/s 729 mmHg 79%
    12:00 +11°C° 0.6 mm 6 m/s 729 mmHg 80%
    13:00 +13°C° 0.4 mm 6 m/s 729 mmHg 76%
    14:00 +14°C° 0.4 mm 6 m/s 729 mmHg 72%
    15:00 +15°C° 0.4 mm 6 m/s 729 mmHg 68%
    16:00 +14°C° 0.4 mm 6 m/s 729 mmHg 71%
    17:00 +14°C° 0.4 mm 6 m/s 729 mmHg 74%
    18:00 +13°C° 0.4 mm 6 m/s 729 mmHg 76%
    19:00 +12°C° 1 mm 5 m/s 729 mmHg 81%
    20:00 +10°C° 1 mm 5 m/s 729 mmHg 86%
    21:00 +9°C° 1 mm 5 m/s 728 mmHg 91%
    22:00 +10°C° 1.1 mm 4 m/s 728 mmHg 92%
    23:00 +10°C° 1.1 mm 3 m/s 728 mmHg 92%

    8 Junho, Segunda-feira

    Tempo Temperatura Precipitação Vento Pressão Humidade
    00:00 +9°C° 1.1 mm 3 m/s 729 mmHg 93%
    01:00 +9°C° 0.7 mm 3 m/s 728 mmHg 93%
    02:00 +8°C° 0.7 mm 2 m/s 728 mmHg 94%
    03:00 +8°C° 0.7 mm 2 m/s 728 mmHg 94%
    04:00 +9°C° 0.3 mm 2 m/s 729 mmHg 91%
    05:00 +9°C° 0.3 mm 2 m/s 729 mmHg 89%
    06:00 +10°C° 0.3 mm 2 m/s 729 mmHg 86%
    07:00 +12°C° 0.6 mm 2 m/s 729 mmHg 77%
    08:00 +14°C° 0.6 mm 2 m/s 729 mmHg 69%
    09:00 +15°C° 0.6 mm 2 m/s 729 mmHg 60%
    10:00 +15°C° 0.2 mm 2 m/s 729 mmHg 56%
    11:00 +16°C° 0.2 mm 2 m/s 729 mmHg 52%
    12:00 +18°C° 0.2 mm 1 m/s 729 mmHg 48%
    13:00 +17°C° 0 mm 2 m/s 729 mmHg 48%
    14:00 +18°C° 0 mm 2 m/s 729 mmHg 48%
    15:00 +18°C° 0 mm 2 m/s 729 mmHg 47%
    16:00 +18°C° 0 mm 2 m/s 729 mmHg 51%
    17:00 +18°C° 0 mm 2 m/s 729 mmHg 55%
    18:00 +18°C° 0 mm 2 m/s 730 mmHg 59%
    19:00 +16°C° 0 mm 2 m/s 730 mmHg 59%
    20:00 +13°C° 0 mm 3 m/s 730 mmHg 60%
    21:00 +11°C° 0 mm 3 m/s 730 mmHg 60%
    22:00 +11°C° 0 mm 3 m/s 729 mmHg 64%
    23:00 +11°C° 0 mm 4 m/s 729 mmHg 67%

    9 Junho, Terça-feira

    Tempo Temperatura Precipitação Vento Pressão Humidade
    00:00 +11°C° 0 mm 4 m/s 729 mmHg 71%
    01:00 +11°C° 1.3 mm 4 m/s 728 mmHg 78%
    02:00 +9°C° 1.3 mm 5 m/s 728 mmHg 85%
    03:00 +9°C° 1.3 mm 5 m/s 727 mmHg 92%
    04:00 +9°C° 1.3 mm 5 m/s 727 mmHg 92%
    05:00 +9°C° 1.3 mm 5 m/s 727 mmHg 92%
    06:00 +9°C° 1.3 mm 5 m/s 726 mmHg 92%
    07:00 +9°C° 1.3 mm 5 m/s 726 mmHg 93%
    08:00 +10°C° 1.3 mm 5 m/s 726 mmHg 94%
    09:00 +10°C° 1.3 mm 5 m/s 726 mmHg 94%
    10:00 +10°C° 1.6 mm 5 m/s 726 mmHg 94%
    11:00 +12°C° 1.6 mm 5 m/s 726 mmHg 93%
    12:00 +12°C° 1.6 mm 5 m/s 726 mmHg 92%
    13:00 +13°C° 0.6 mm 6 m/s 726 mmHg 90%
    14:00 +14°C° 0.6 mm 6 m/s 726 mmHg 87%
    15:00 +16°C° 0.6 mm 7 m/s 726 mmHg 84%
    16:00 +16°C° 0.2 mm 7 m/s 726 mmHg 84%
    17:00 +16°C° 0.2 mm 6 m/s 726 mmHg 84%
    18:00 +16°C° 0.2 mm 6 m/s 726 mmHg 84%
    19:00 +15°C° 1.7 mm 6 m/s 726 mmHg 88%
    20:00 +14°C° 1.7 mm 5 m/s 725 mmHg 91%
    21:00 +14°C° 1.7 mm 4 m/s 725 mmHg 95%
    22:00 +13°C° 2.6 mm 4 m/s 725 mmHg 95%
    23:00 +13°C° 2.6 mm 3 m/s 725 mmHg 95%

    10 Junho, Quarta-feira

    Tempo Temperatura Precipitação Vento Pressão Humidade
    00:00 +13°C° 2.6 mm 3 m/s 724 mmHg 95%
    01:00 +13°C° 0.5 mm 3 m/s 724 mmHg 94%
    02:00 +13°C° 0.5 mm 3 m/s 724 mmHg 94%
    03:00 +13°C° 0.5 mm 3 m/s 724 mmHg 93%
    04:00 +13°C° 0.2 mm 3 m/s 723 mmHg 93%
    05:00 +13°C° 0.2 mm 3 m/s 723 mmHg 93%
    06:00 +14°C° 0.2 mm 2 m/s 723 mmHg 93%
    07:00 +13°C° 1.3 mm 3 m/s 723 mmHg 94%
    08:00 +12°C° 1.3 mm 3 m/s 723 mmHg 94%
    09:00 +12°C° 1.3 mm 3 m/s 723 mmHg 95%
    10:00 +11°C° 2.6 mm 3 m/s 724 mmHg 95%
    11:00 +10°C° 2.6 mm 2 m/s 724 mmHg 94%
    12:00 +10°C° 2.6 mm 2 m/s 724 mmHg 94%
    13:00 +10°C° 1.5 mm 2 m/s 725 mmHg 92%
    14:00 +12°C° 1.5 mm 1 m/s 725 mmHg 90%
    15:00 +12°C° 1.5 mm 1 m/s 726 mmHg 89%
    16:00 +13°C° 0.1 mm 2 m/s 726 mmHg 87%
    17:00 +13°C° 0.1 mm 2 m/s 726 mmHg 85%
    18:00 +13°C° 0.1 mm 3 m/s 726 mmHg 84%
    19:00 +12°C° 0 mm 3 m/s 726 mmHg 87%
    20:00 +11°C° 0 mm 3 m/s 726 mmHg 90%
    21:00 +10°C° 0 mm 2 m/s 726 mmHg 94%
    22:00 +10°C° 0 mm 3 m/s 726 mmHg 93%
    23:00 +10°C° 0 mm 3 m/s 726 mmHg 93%
    Mostrar mais